Zurück zum Katalog

STARLINK-37205

AktivKommunikationVLEO
NORAD 68332·PAYLOAD·🇺🇸 United States

Gestartet Mar 22, 2026 von Cape Canaveral Space Force Station

Loading…

Nächste Überflüge (nächste 24 Stunden)

TLE

AktuellSource: CelesTrak SupGP

Epoche: Sep 14, 2026, 22:50 UTC

1 68332C 26059M   26257.95187500 -.00033970  00000+0 -10032-2 0  2579
2 68332  53.1577 187.3057 0001384  95.6639  90.6411 15.34422481    13

Verfolge STARLINK-37205 in Echtzeit mit AllMySat

Download on the App Store